Location: Unspecified
(35.6961°N, 0.0000°E)
Time: 09:08:58
(UTC+00:00)

Courier 1B Rocket - Pass Details

Date: 20 May 2019
Orbit: 920 x 1202 km, 28.2° (Epoch: 15 June)

Event Time Altitude Azimuth Distance (km) Brightness Sun altitude
Rises 20:17:26 0° 264° (W) 4,068 9.0 -13.9°
Reaches altitude 10° 20:20:27 10° 258° (WSW) 3,080 8.2 -14.4°
Maximum altitude 20:27:37 45° 188° (S) 1,491 5.7 -15.5°
Enters shadow 20:31:46 23° 130° (SE) 2,125 6.1 -16.1°
